Location: Unspecified
(0.0000°N, 0.0000°E)
Time: 23:39:35
(UTC+00:00)

Explorer 7 - All Passes

Search period start: 19 November 2019 00:00
Search period end: 29 November 2019 00:00
Orbit: 485 x 680 km, 50.3° (Epoch: 18 November)

Date Brightness Start Highest point End Pass type
(mag) Time Alt. Az. Time Alt. Az. Time Alt. Az.
19 Nov - 09:17:43 10° WNW 09:21:14 39° SW 09:24:48 10° SSE daylight
19 Nov - 19:39:55 10° S 19:43:26 19° SE 19:46:56 10° E visible
19 Nov - 21:19:27 10° WSW 21:23:54 34° NW 21:28:17 10° NNE visible
20 Nov - 07:43:10 10° N 07:45:54 19° NE 07:48:37 10° E daylight
20 Nov - 09:23:35 10° W 09:26:10 18° SW 09:28:47 10° S daylight
20 Nov - 19:43:51 10° SSW 19:48:22 37° SE 19:52:53 10° ENE visible
20 Nov - 21:25:32 10° W 21:28:50 18° NW 21:32:07 10° N visible
21 Nov - 07:47:14 10° NNW 07:50:49 43° NE 07:54:24 10° SE daylight
21 Nov - 19:48:23 10° SSW 19:53:17 75° SE 19:58:10 10° NE visible
22 Nov - 07:51:59 10° NW 07:55:44 74° SW 07:59:28 10° SSE daylight
22 Nov - 18:15:44 10° SSE 18:17:41 12° SE 18:19:39 10° ESE visible
22 Nov - 19:53:24 10° SW 19:58:11 55° NW 20:02:58 10° NNE visible
23 Nov - 06:19:04 10° NNE 06:20:20 11° NE 06:21:36 10° ENE daylight
23 Nov - 07:57:19 10° WNW 08:00:38 30° SW 08:03:58 10° S daylight
23 Nov - 18:18:46 10° S 18:22:39 24° SE 18:26:33 10° ENE visible
23 Nov - 19:58:57 10° WSW 20:03:06 28° NW 20:07:17 10° N visible
24 Nov - 06:22:08 10° N 06:25:17 25° NE 06:28:24 10° ESE daylight
24 Nov - 08:03:36 10° W 08:05:34 14° SW 08:07:33 10° SSW daylight
24 Nov - 18:22:56 10° SSW 18:27:34 46° SE 18:32:15 10° NE visible
24 Nov - 20:05:23 10° W 20:08:03 15° NW 20:10:45 10° NNW visible
25 Nov - 06:26:28 10° NNW 06:30:13 59° NE 06:33:54 10° SE daylight
25 Nov - 18:27:37 10° SW 18:32:27 88° WNW 18:37:23 10° NE visible
26 Nov - 06:31:24 10° NW 06:35:07 54° SW 06:38:47 10° SSE daylight
26 Nov - 16:54:13 10° SSE 16:56:56 15° SE 16:59:40 10° E daylight
26 Nov - 18:32:47 10° SW 18:37:22 44° NW 18:42:01 10° NNE visible
27 Nov - 04:57:26 10° NNE 04:59:43 15° NE 05:01:58 10° E visible
27 Nov - 06:36:56 10° WNW 06:40:01 23° SW 06:43:04 10° S daylight
27 Nov - 16:57:45 10° S 17:01:51 29° SE 17:06:02 10° ENE daylight
27 Nov - 18:38:31 10° WSW 18:42:18 23° NW 18:46:08 10° N visible
28 Nov - 05:01:10 10° NNW 05:04:40 32° NE 05:08:05 10° ESE visible
28 Nov - 06:44:02 10° WSW 06:44:57 11° SW 06:45:52 10° SW daylight
28 Nov - 17:02:05 10° SSW 17:06:45 57° SE 17:11:32 10° NE daylight
28 Nov - 18:45:36 10° WNW 18:47:18 12° NW 18:48:59 10° NNW visible
